GFSGBSN_sfc_wetblb_000.txt.gz
Wetbulb
61.00 60.59 59.94 60.28 60.10 60.05 59.61 59.56 59.79 59.99 60.20 60.81 61.10 61.33 61.32 61.21 61.30 61.49 61.71 62.04 62.20 62.66 63.22 63.73 63.86 64.39 59.65 52.15 50.96 57.54 65.24 65.87 59.94 59.14 58.45 57.41 55.60 56.01 53.62 54.66 55.17 52.01 53.82 55.65 55.37 54.82 53.68
61.14 60.90 60.58 60.38 60.33 60.31 60.03 59.72 59.61 59.55 59.91 60.41 60.95 61.15 61.12 60.93 60.98 61.14 61.46 61.83 62.15 62.30 62.80 63.04 63.91 63.86 55.39 48.31 54.59 56.78 56.86 56.88 57.55 58.29 58.24 58.67 56.82 56.72 54.08 55.37 52.29 54.32 53.40 53.64 53.54 52.54 53.94
61.55 61.21 60.90 60.58 60.34 60.18 59.95 59.89 59.21 58.90 59.05 59.54 60.51 60.94 61.01 60.72 60.68 60.92 61.34 61.66 61.71 61.60 62.03 62.73 64.06 60.49 54.05 49.54 54.78 56.19 56.30 56.14 57.52 58.29 57.34 59.10 58.61 55.27 57.00 53.98 54.90 54.14 49.55 50.88 50.97 51.39 51.02
61.38 61.56 61.35 60.93 60.47 60.13 59.40 59.17 58.74 58.74 58.75 59.30 59.58 60.31 60.31 60.14 60.39 60.70 61.13 61.43 61.37 61.57 62.26 63.34 63.76 57.86 51.08 54.60 56.56 54.73 56.06 55.74 58.30 59.14 59.54 60.98 59.78 57.33 55.87 54.90 52.95 49.18 49.38 44.95 50.15 50.90 51.59
61.87 61.07 60.77 60.90 60.83 60.26 59.58 58.99 58.56 58.37 58.77 58.73 59.40 59.49 59.48 59.58 59.68 60.25 60.57 60.76 61.07 62.33 63.10 63.39 58.39 56.34 49.69 56.78 52.65 55.36 56.07 54.42 56.75 57.69 60.36 58.13 58.74 55.89 56.11 49.42 46.58 47.96 42.64 44.88 47.49 51.16 50.88
62.53 62.14 61.86 61.23 60.22 60.14 60.02 59.12 58.57 58.05 58.04 58.66 58.33 58.65 58.67 58.74 59.29 59.82 59.99 59.24 61.47 61.30 60.91 61.02 58.81 50.78 50.86 49.04 53.40 54.12 55.84 55.88 55.07 55.96 54.70 54.17 53.51 50.18 49.07 46.59 40.69 44.00 43.30 45.64 45.77 49.00 49.28
63.16 62.99 62.50 62.23 61.81 61.00 59.91 59.73 58.74 58.08 58.08 58.26 58.25 58.59 58.52 58.48 59.10 59.39 57.42 57.66 54.00 53.18 54.38 51.70 51.95 50.92 51.04 52.63 54.18 52.04 54.71 54.33 54.69 53.54 48.90 51.99 47.56 44.90 47.41 48.42 48.82 48.51 46.44 45.62 48.20 51.06 48.03
63.44 63.46 63.29 62.87 62.52 62.11 61.33 60.35 59.43 58.70 57.68 57.72 57.86 58.71 58.67 58.59 58.75 58.64 55.87 55.59 55.07 55.30 47.82 53.98 53.69 52.62 53.80 53.51 48.61 50.83 54.71 50.65 51.21 47.88 50.70 49.40 44.50 49.97 51.83 51.41 49.00 48.08 45.61 44.70 48.01 49.84 47.96
61.48 61.59 61.65 61.76 62.30 62.14 61.74 61.22 60.65 59.70 58.73 57.76 57.14 57.56 58.38 58.51 58.10 55.89 55.65 56.29 59.90 57.65 48.69 51.85 53.14 51.61 51.77 52.43 48.46 49.10 51.85 51.56 50.18 48.52 48.85 46.84 49.82 51.46 49.98 49.28 47.44 46.91 44.89 44.72 44.78 48.32 48.03
59.43 59.62 59.91 59.94 60.01 60.08 60.16 60.83 61.18 60.82 60.05 58.93 57.63 56.73 57.34 57.04 53.42 56.39 54.22 58.73 60.74 59.43 44.54 46.86 47.78 50.55 51.32 51.98 47.98 53.13 53.04 52.58 50.54 47.50 49.10 48.87 51.07 48.56 47.69 46.48 47.47 43.25 48.66 47.55 46.67 43.44 37.92
57.55 57.43 57.43 57.36 58.01 57.72 57.96 58.26 58.72 59.53 60.04 59.54 58.83 57.07 56.36 56.08 53.87 53.96 57.45 60.27 60.23 56.23 38.53 48.22 48.03 53.72 52.09 48.57 50.25 50.05 55.72 52.67 47.79 48.03 49.02 47.04 46.77 46.14 45.76 46.39 48.33 45.72 49.34 47.61 46.50 42.93 41.32
56.53 56.39 56.18 55.98 55.91 56.28 56.90 57.08 57.18 57.53 57.38 57.21 58.65 57.95 55.80 56.11 56.26 58.96 60.45 59.36 56.30 44.60 38.49 45.79 48.58 46.25 46.86 48.24 49.31 50.88 50.15 52.95 53.91 48.66 48.84 48.02 50.28 49.01 47.82 49.71 49.40 49.07 46.82 46.61 45.10 41.78 34.56
55.15 55.24 55.32 55.22 55.27 55.79 56.21 56.24 56.16 56.05 56.41 55.99 56.30 57.40 54.94 56.88 56.46 62.61 60.63 54.50 44.08 39.73 48.96 45.27 45.62 47.04 45.92 46.15 46.27 48.40 46.77 45.31 43.59 40.64 41.72 46.31 46.69 48.85 49.82 45.99 48.41 46.75 42.30 35.51 34.42 34.25 33.61
54.63 54.47 54.43 54.92 55.12 55.47 55.62 55.91 55.77 55.58 55.70 55.19 54.63 56.15 58.06 57.67 59.33 62.16 57.68 47.53 38.39 46.52 47.77 49.74 47.59 47.13 44.17 46.80 46.80 47.05 46.13 43.89 47.15 45.96 43.47 41.52 39.67 45.79 48.19 46.22 43.70 43.12 42.56 36.73 30.85 33.03 37.41
54.43 54.26 54.22 54.22 54.97 55.19 55.13 55.39 55.64 55.44 54.81 53.99 54.22 60.44 58.92 60.41 60.22 60.56 52.43 40.70 43.60 47.42 48.91 47.60 47.25 44.42 44.77 46.83 46.85 46.33 45.34 44.76 47.26 47.26 42.05 41.94 42.15 49.62 48.31 48.38 47.64 44.21 39.64 44.93 39.47 40.63 35.94
54.74 55.56 55.99 55.13 54.26 54.81 54.93 54.76 54.84 55.28 54.44 53.06 53.99 56.06 56.99 61.33 59.89 55.79 48.02 43.20 46.66 50.94 50.81 49.98 43.25 46.76 43.94 46.84 45.14 45.10 45.29 48.54 46.94 49.58 49.52 46.23 40.81 47.93 47.76 48.40 47.89 45.61 47.36 38.50 38.39 30.45 29.06
55.28 55.44 55.77 56.56 56.21 55.57 55.63 54.87 54.78 54.92 54.19 53.19 54.90 51.44 57.56 60.98 58.68 49.68 43.05 45.91 49.02 52.54 52.51 47.43 45.78 44.35 44.60 44.28 45.63 45.55 45.50 49.01 50.75 50.18 50.07 47.70 44.43 44.08 44.24 42.56 41.94 41.86 40.93 42.63 41.79 38.54 31.59
55.36 55.60 55.78 56.29 56.13 55.68 55.78 55.00 54.77 55.10 53.45 52.32 52.10 45.08 58.29 59.27 48.24 48.80 45.26 47.78 49.35 50.37 52.43 50.22 49.04 47.34 45.32 45.38 44.70 44.82 44.64 48.58 51.55 51.08 47.14 48.89 45.30 40.25 41.22 47.00 47.74 45.79 43.00 43.23 37.01 35.04 38.76
55.58 55.24 55.04 56.00 55.90 55.56 55.66 55.69 55.61 54.89 53.38 48.66 46.35 47.66 57.75 56.73 42.23 43.46 46.68 46.21 48.26 48.65 49.60 48.32 46.77 48.63 49.22 45.91 42.35 45.67 46.46 50.59 51.09 50.09 47.79 48.33 43.29 37.30 39.92 42.79 44.82 42.61 44.54 44.36 43.43 41.48 37.74
55.18 54.50 54.40 54.74 55.32 55.29 55.34 55.60 55.53 55.17 54.17 50.51 45.99 40.14 47.41 51.23 50.01 45.49 43.90 44.14 44.27 49.56 48.22 48.55 46.88 48.69 47.09 45.29 47.35 43.98 45.18 49.27 47.97 50.24 55.20 51.23 44.68 41.27 36.26 40.50 43.48 39.54 42.60 44.22 42.81 37.75 38.02
53.83 53.71 53.73 53.76 54.78 55.06 55.14 55.12 54.99 55.05 54.48 50.80 46.08 43.03 45.56 39.06 42.22 43.29 42.65 41.90 40.60 41.24 46.43 47.78 44.45 43.88 43.75 40.70 42.38 42.46 45.49 46.03 48.13 49.73 49.15 47.57 40.61 42.88 43.99 45.40 46.02 45.13 43.13 42.72 41.15 41.88 38.35
52.96 53.00 52.81 53.03 53.83 54.39 54.67 54.99 55.00 54.63 53.93 49.53 43.10 41.71 43.68 40.58 41.62 39.44 39.08 37.50 37.93 40.54 42.03 41.55 41.88 43.89 43.49 40.55 42.07 40.31 42.40 42.73 42.43 45.10 41.56 44.11 39.50 42.35 40.54 44.38 44.62 42.91 45.04 45.41 43.05 43.07 42.80
52.64 52.63 52.90 52.77 54.00 54.19 54.15 54.39 54.70 54.10 52.68 47.64 48.87 47.68 42.57 39.99 38.96 37.62 38.07 38.78 38.88 40.39 41.20 42.01 40.92 39.67 41.24 43.15 45.12 45.12 45.38 44.27 42.73 39.44 36.45 36.36 36.87 37.48 35.52 42.28 42.48 38.74 43.12 44.75 45.33 45.45 43.78
52.25 53.01 52.79 52.68 53.25 54.17 54.41 54.51 54.16 54.16 52.73 49.30 48.20 48.13 41.62 35.22 37.97 37.67 39.10 39.55 38.28 39.11 37.81 41.01 41.44 38.71 41.78 45.72 45.32 44.39 43.35 42.82 42.25 41.99 42.31 36.53 35.99 35.03 33.33 38.65 31.42 42.77 48.18 47.88 46.04 46.92 46.66
51.91 51.83 52.38 51.86 52.93 53.40 54.07 54.03 54.05 54.20 53.73 50.99 49.95 47.21 42.84 36.34 38.18 38.42 38.78 38.71 40.03 40.83 39.53 39.66 42.07 43.74 46.80 43.83 37.66 34.46 34.20 35.66 37.86 40.32 40.53 42.06 38.76 34.56 32.75 33.62 38.93 43.41 45.97 45.52 43.38 42.70 48.12
51.48 51.70 51.80 51.81 52.81 52.96 53.23 53.76 54.24 54.04 53.63 51.63 50.08 50.99 46.23 38.25 36.20 40.14 38.56 39.85 36.58 36.78 38.03 39.96 43.95 44.72 44.57 39.68 36.00 28.69 27.21 31.83 31.27 35.67 43.80 43.01 43.00 37.89 34.85 31.76 31.32 41.01 47.47 48.58 46.07 37.28 46.88
51.29 51.43 51.57 51.59 52.13 52.52 53.08 53.57 53.80 53.60 53.34 51.90 49.11 51.25 46.28 39.71 41.64 41.52 37.64 37.10 40.76 38.99 36.15 38.46 39.50 39.80 42.95 36.87 32.55 29.67 28.74 34.56 28.21 29.36 31.07 34.31 35.03 31.37 30.66 28.36 35.71 44.45 48.17 48.07 36.71 38.87 46.21
50.92 51.04 51.07 51.05 51.26 51.90 51.77 52.99 53.40 53.47 53.21 51.67 48.66 51.22 46.90 41.52 42.19 44.00 43.82 40.23 40.52 39.66 35.03 38.64 37.03 37.94 36.56 31.94 31.38 30.97 30.43 33.01 32.23 34.22 33.49 32.48 30.58 30.23 32.64 29.41 28.50 43.61 43.03 38.40 40.69 43.62 44.52
50.81 50.98 50.86 50.77 51.48 51.57 51.73 52.07 52.75 53.13 52.80 52.12 46.62 50.59 50.85 44.31 42.13 47.10 47.24 47.69 46.10 45.10 41.09 40.62 37.98 37.80 38.96 34.81 35.09 34.46 30.80 32.42 30.39 26.16 35.32 29.72 36.35 33.28 34.91 35.51 40.70 42.75 43.89 44.05 44.20 44.55 43.88

GFSGBSN_sfc_wetblb_003.txt.gz
Wetbulb
60.71 60.50 59.96 59.90 60.00 60.08 60.25 60.06 59.89 59.87 59.92 60.53 61.29 61.44 61.34 61.07 61.09 61.19 61.42 61.78 62.17 62.43 62.70 63.00 63.45 64.34 57.48 49.06 48.68 56.69 66.00 64.14 61.84 57.98 56.15 55.86 51.57 50.73 47.85 50.06 50.52 47.63 49.96 52.99 52.15 51.83 50.65
61.52 61.14 60.17 59.93 59.72 59.53 59.60 59.64 59.50 59.20 59.35 59.75 60.69 61.14 61.22 60.96 60.91 61.11 61.46 61.82 62.16 62.28 62.37 62.47 63.42 63.98 52.94 44.50 53.05 56.80 56.77 54.99 56.41 57.03 55.29 55.72 53.49 52.91 49.40 48.87 47.36 49.88 50.57 50.77 51.04 50.16 50.15
61.16 61.22 61.13 60.53 59.79 59.67 59.28 58.75 59.05 59.24 59.05 59.56 59.90 60.33 60.53 60.30 60.27 60.54 61.03 61.50 61.84 61.42 61.53 62.19 63.58 60.79 52.23 49.07 51.86 52.59 55.00 53.85 56.03 56.72 55.52 56.48 55.82 51.76 50.44 47.64 51.27 50.19 46.10 47.00 47.81 48.58 47.94
62.03 61.58 61.03 60.63 60.58 59.94 59.15 58.66 58.37 58.40 59.01 59.11 59.60 60.04 59.79 59.66 59.71 59.97 60.49 60.85 61.05 61.15 61.55 62.62 63.24 55.03 47.27 53.14 51.72 52.96 53.28 53.32 56.09 56.58 57.89 56.85 56.56 53.95 51.16 50.25 48.96 45.03 43.89 38.82 46.00 47.96 48.89
62.47 61.96 62.27 61.95 60.84 60.29 59.84 59.00 58.63 58.20 58.28 59.06 58.99 58.94 59.22 59.17 59.08 59.69 60.11 60.40 60.16 61.17 62.30 63.17 56.22 51.75 46.90 56.75 50.41 52.66 52.85 53.06 54.69 55.51 56.03 57.88 55.68 50.29 49.92 43.45 39.76 41.10 35.42 39.09 43.41 48.34 48.13
63.16 62.88 62.57 62.34 61.79 61.39 60.41 59.73 58.77 58.13 58.03 58.29 58.74 58.66 58.89 58.82 58.91 59.43 59.38 59.36 59.54 59.89 59.33 58.91 58.55 46.83 48.96 47.30 51.65 52.46 51.56 54.60 53.21 53.34 53.74 51.40 48.19 44.08 42.84 39.87 33.83 37.29 37.18 40.67 40.51 45.59 46.40
62.29 62.24 62.11 62.34 62.07 61.97 61.56 61.27 60.03 58.96 57.95 57.80 57.92 58.37 58.73 58.83 58.88 58.96 55.74 53.21 50.54 49.91 51.45 48.81 50.35 48.08 49.05 50.72 52.14 49.41 52.76 52.59 52.68 49.80 43.64 46.99 41.38 38.60 41.28 42.95 43.59 42.62 41.51 40.91 43.15 47.69 44.72
60.74 60.73 60.29 59.70 59.56 59.81 60.37 60.75 60.62 60.44 60.04 59.31 58.07 57.58 58.03 58.70 58.53 57.95 54.92 50.95 51.54 51.16 44.19 51.77 51.90 51.76 52.74 50.54 46.58 48.19 52.18 47.50 47.40 43.08 45.37 43.20 39.56 44.95 47.52 46.66 45.20 43.79 41.02 40.41 43.87 47.65 45.08
58.08 58.16 58.03 58.12 58.29 57.95 57.93 58.08 58.49 58.58 58.88 59.12 59.15 58.32 57.31 58.12 57.13 52.79 50.87 52.79 55.90 53.73 44.31 49.22 51.53 50.85 50.13 50.31 46.76 46.39 50.05 47.78 45.40 43.67 44.09 40.18 44.85 49.03 47.22 45.72 44.24 43.39 41.15 40.55 40.83 44.71 44.56
56.84 56.75 56.58 56.60 56.65 56.66 56.34 56.21 56.48 57.35 57.46 57.18 57.47 58.08 57.53 56.64 53.01 52.50 51.21 55.44 55.15 53.75 39.05 44.35 47.62 49.49 50.34 50.54 45.71 50.95 51.03 49.20 46.43 43.85 44.28 43.51 48.28 47.05 44.98 43.98 44.87 39.82 45.62 45.47 43.93 39.58 33.84
56.10 56.18 55.97 55.78 55.69 55.75 55.66 56.38 56.25 56.50 56.30 56.10 56.62 57.20 57.82 55.14 47.75 51.42 54.27 55.51 53.56 50.76 30.80 46.73 46.97 52.29 49.97 46.48 48.27 48.83 52.37 49.65 44.71 45.21 44.03 42.50 43.85 43.68 43.20 44.12 45.18 41.68 46.32 44.28 43.64 38.77 36.14
55.56 55.55 55.34 55.12 54.90 54.93 55.67 56.05 56.19 56.18 55.84 55.78 55.80 55.89 56.93 52.29 51.51 53.16 57.11 54.94 51.05 39.68 32.16 43.69 46.22 44.98 44.17 45.79 46.80 49.90 48.53 49.91 49.76 45.49 45.34 43.73 47.69 46.15 45.64 47.17 47.01 47.00 44.02 42.85 40.99 37.23 30.15
54.91 54.72 54.65 54.70 54.60 55.28 55.86 55.52 55.67 55.61 55.90 55.43 55.15 55.00 55.11 55.20 52.26 57.47 56.45 49.09 37.65 31.96 46.27 42.96 43.34 44.86 43.40 42.61 43.83 46.25 44.15 41.62 38.74 35.74 35.84 41.94 44.08 45.54 47.60 43.06 45.19 43.74 38.10 30.39 29.55 29.24 29.15
54.71 55.13 55.78 55.86 55.82 55.79 55.45 55.65 55.77 55.62 55.88 54.99 54.15 55.03 56.63 54.93 53.33 55.44 52.06 41.89 30.60 42.23 43.36 47.65 46.75 44.51 41.16 43.80 43.19 43.66 42.47 38.89 42.15 40.21 37.05 34.60 33.98 43.08 45.48 44.15 40.34 39.93 38.65 31.01 25.76 27.59 32.86
55.69 56.03 56.47 56.66 55.74 55.25 55.61 55.93 56.13 56.08 55.27 53.96 53.72 54.23 53.41 54.96 55.38 53.52 45.70 33.83 36.82 42.27 47.44 45.68 46.02 40.62 40.27 43.78 42.60 41.61 40.32 40.55 43.15 43.19 37.07 36.45 37.11 45.43 45.60 46.04 45.63 39.36 37.06 41.68 33.88 33.60 29.72
55.66 55.97 56.34 56.00 55.63 55.38 55.35 55.39 55.88 55.98 54.92 53.65 47.95 50.74 51.83 56.23 53.58 49.91 41.68 39.22 41.02 47.66 48.46 47.46 40.64 43.03 38.72 41.48 40.25 40.48 39.34 43.87 43.83 46.38 46.31 40.98 36.86 43.94 45.33 45.50 44.81 41.67 42.92 34.70 33.83 27.04 24.31
55.96 55.70 55.63 55.75 55.85 55.88 56.04 55.38 55.49 56.01 54.67 53.42 50.06 44.86 53.67 56.71 52.08 42.87 35.76 39.12 45.23 49.72 49.60 45.78 42.21 41.32 41.10 40.29 41.44 40.17 41.08 45.33 47.04 47.25 46.69 44.47 39.23 40.23 41.55 39.47 39.95 38.99 39.28 38.59 37.11 32.83 26.72
55.77 55.15 54.96 55.48 55.83 55.65 55.86 55.49 55.42 55.68 53.94 48.87 44.61 39.40 53.81 53.59 42.66 40.59 37.69 43.08 46.65 45.45 47.74 46.75 46.69 44.90 42.69 42.86 41.54 41.24 41.09 44.22 48.96 47.58 43.60 45.74 41.54 37.55 40.23 43.29 45.10 43.76 41.39 41.58 34.97 30.10 34.10
54.70 54.53 54.51 54.74 55.38 55.29 55.38 55.49 55.14 54.43 53.75 45.89 40.98 39.99 49.94 51.06 35.90 35.78 40.83 44.09 45.66 45.12 45.35 45.87 45.36 47.27 46.95 43.65 40.03 42.15 43.70 48.07 47.58 46.94 44.81 46.14 41.03 35.33 37.60 38.71 40.63 38.74 41.59 41.29 41.95 35.86 35.36
53.35 53.45 53.52 53.58 54.52 54.53 54.88 55.09 55.15 54.51 54.03 46.93 40.19 33.03 39.28 43.59 42.27 38.96 37.95 37.32 38.04 42.89 42.62 43.50 42.81 44.78 43.64 41.36 43.84 42.07 42.71 46.95 48.15 46.83 49.42 47.43 42.65 39.38 34.41 38.39 40.17 36.80 39.83 41.84 39.68 35.47 36.76
52.73 52.71 53.18 53.47 54.57 54.57 54.60 54.98 55.23 54.91 53.99 46.94 39.78 35.19 39.06 33.48 35.03 35.44 34.16 35.31 33.93 34.15 39.67 40.43 38.70 39.26 36.51 35.56 38.86 38.90 41.48 42.61 44.96 46.99 42.82 41.18 37.86 39.66 37.97 37.96 39.92 40.96 41.54 41.11 39.00 40.01 36.32
52.79 52.80 52.74 52.80 53.88 54.44 54.50 54.80 54.91 54.58 53.48 44.74 37.16 36.46 37.64 35.20 35.86 33.48 34.77 31.96 34.67 36.49 36.23 35.39 34.59 37.00 36.64 32.84 34.66 33.12 37.67 38.47 38.83 40.50 39.36 40.39 32.87 34.05 30.80 36.18 36.90 35.07 38.67 40.24 41.72 42.03 41.29
52.52 52.44 52.38 52.44 52.74 53.63 54.09 54.14 54.38 53.84 51.32 42.05 43.20 43.86 41.40 37.82 33.75 32.14 32.18 34.70 36.12 37.70 37.77 39.25 37.56 35.78 34.63 36.60 38.31 38.99 38.93 40.22 40.41 38.28 36.71 36.05 34.46 31.28 26.78 34.12 33.13 28.89 36.68 40.81 42.72 43.85 42.74
52.15 52.14 52.10 52.24 52.29 53.29 53.70 53.92 54.09 53.82 52.18 45.95 43.66 41.71 37.20 32.83 34.40 34.76 36.81 37.87 36.86 37.25 34.79 38.42 39.03 35.72 38.93 43.46 41.89 40.33 38.55 38.74 40.18 40.46 41.09 35.27 33.01 33.82 28.38 31.16 23.73 35.18 45.01 45.07 43.67 45.35 45.95
51.99 52.07 52.24 52.35 52.61 53.33 53.46 53.38 53.19 54.11 53.30 46.42 45.76 44.57 40.02 33.36 34.95 35.27 36.02 36.33 37.06 37.90 37.17 37.14 39.02 40.60 40.14 38.93 34.05 30.51 30.68 31.86 34.17 36.92 36.51 37.12 34.55 32.04 29.16 28.90 33.06 36.58 41.68 40.43 39.17 38.17 44.84
51.59 51.76 51.87 51.95 51.99 52.82 52.66 53.03 53.57 53.65 53.23 47.47 45.52 46.01 43.32 37.71 34.61 37.69 36.22 36.53 33.78 33.56 34.43 37.12 40.62 42.37 38.89 35.75 31.67 19.70 23.91 27.43 26.92 31.22 37.55 37.41 36.34 33.10 31.01 27.34 24.01 34.90 41.21 45.16 42.41 36.17 42.27
51.36 51.55 51.58 51.68 51.74 52.37 51.95 52.24 52.55 52.98 53.07 49.59 45.54 46.67 41.48 37.21 38.94 39.01 35.68 36.37 38.02 37.14 35.55 36.97 36.46 36.29 37.59 31.43 27.75 25.25 24.46 31.27 24.39 25.32 26.55 27.82 29.11 28.27 29.06 27.97 31.06 38.81 41.63 43.59 32.77 34.33 41.35
51.15 51.27 51.34 51.17 51.27 51.88 51.27 51.39 51.82 52.22 52.51 48.37 45.54 47.19 42.86 38.87 39.35 41.25 41.54 38.40 38.22 38.48 34.37 36.19 35.88 34.59 32.80 28.83 27.89 25.87 24.94 29.48 30.43 31.23 29.25 28.30 26.55 25.96 26.85 26.41 23.11 42.09 42.22 37.31 40.68 40.96 41.40
50.67 50.89 50.92 50.95 50.68 50.75 51.78 52.14 51.51 51.21 52.15 50.96 44.29 46.90 47.93 42.63 39.80 44.22 44.48 45.23 44.07 43.30 39.86 38.80 37.34 35.83 37.97 31.70 30.85 30.19 25.95 27.43 28.35 24.70 33.28 25.46 31.19 27.33 29.79 29.49 37.57 39.11 39.21 45.07 44.67 42.14 41.80

GFSGBSN_sfc_wetblb_006.txt.gz
Wetbulb
61.13 60.27 59.84 59.93 59.28 59.12 59.58 59.59 59.28 59.40 59.67 60.01 60.69 61.16 61.25 61.07 61.04 61.19 61.42 61.70 62.07 62.44 62.49 62.57 62.93 63.93 55.66 47.71 48.04 55.28 67.48 65.66 59.64 56.95 54.96 54.66 49.92 49.29 46.04 48.52 49.00 46.47 48.38 51.61 51.54 50.66 49.70
61.27 60.58 60.18 59.92 59.59 59.18 58.90 59.05 59.32 59.35 59.33 59.78 60.15 60.49 60.67 60.45 60.35 60.54 60.92 61.40 61.89 62.01 62.04 61.81 62.89 63.30 51.13 43.50 52.53 55.05 57.57 53.91 56.17 55.45 53.83 53.91 52.12 51.92 47.88 47.31 46.96 48.26 48.98 49.66 49.97 49.64 48.87
62.42 61.82 60.93 60.59 60.10 59.29 59.06 58.70 58.64 58.74 59.23 59.35 59.83 60.19 60.10 59.84 59.75 59.98 60.46 60.83 61.10 61.14 61.09 61.83 62.87 60.56 50.46 48.24 50.61 53.69 54.40 52.17 54.44 55.23 54.00 55.37 54.75 50.81 49.11 45.96 49.57 48.79 45.32 45.94 46.90 47.50 46.61
63.22 63.04 62.51 61.70 60.81 60.21 59.58 59.02 58.54 58.43 58.69 59.34 59.43 59.35 59.40 59.47 59.38 59.65 60.21 60.44 60.93 61.21 61.50 62.47 62.66 54.11 45.86 53.12 50.45 51.17 51.92 51.52 54.26 54.90 56.01 55.69 55.72 52.99 49.80 48.84 47.10 44.05 42.45 37.14 43.78 46.59 47.48
62.68 62.57 62.50 62.57 62.51 61.90 60.69 59.76 58.78 58.26 58.28 58.70 59.08 59.05 59.08 59.18 59.08 59.41 59.81 59.94 60.28 60.85 61.95 62.51 55.24 49.98 46.24 56.24 47.86 51.13 51.05 50.94 52.78 53.78 54.23 56.44 54.17 49.20 48.62 42.22 38.62 39.12 33.61 36.94 40.86 46.77 46.31
61.45 61.20 60.72 60.76 60.83 61.14 61.34 60.71 60.37 60.12 59.55 58.83 58.36 58.41 58.88 59.01 59.11 59.30 59.12 59.06 59.54 58.59 58.41 58.53 57.53 46.15 48.25 46.09 49.94 50.95 50.17 52.72 51.74 51.87 51.76 49.67 46.41 42.67 41.02 38.45 32.37 35.06 35.03 37.56 37.90 43.73 44.84
59.54 59.19 59.11 59.07 58.93 58.91 59.32 59.76 59.61 59.51 59.37 59.16 59.49 58.59 57.97 58.69 58.97 58.56 54.17 52.60 49.40 48.88 49.84 47.12 48.47 46.39 47.73 49.04 50.88 47.91 51.23 50.80 50.99 48.09 42.24 45.28 40.04 37.66 40.23 41.70 40.59 39.41 38.25 38.32 41.16 45.34 43.47
57.03 57.15 57.23 57.18 57.27 57.37 57.43 57.37 57.30 57.80 57.92 57.61 58.12 58.21 58.67 57.75 58.13 57.41 53.65 50.24 49.91 49.84 44.00 50.09 50.31 50.63 51.71 48.89 45.08 46.52 51.03 46.05 45.59 41.37 43.58 41.29 37.95 43.15 44.77 44.31 42.69 41.15 38.47 37.72 41.70 45.28 43.29
56.65 56.56 56.37 56.30 56.39 56.37 56.28 56.36 56.40 56.49 56.39 56.53 56.74 57.28 57.65 58.37 57.28 52.39 48.97 50.87 54.38 52.04 41.99 46.36 50.37 49.21 49.55 48.85 45.32 44.97 48.71 46.22 43.69 41.46 41.87 37.84 42.67 46.92 45.06 43.37 42.19 41.38 39.65 38.20 39.73 42.55 42.42
56.00 56.13 55.90 55.72 55.59 55.60 55.66 55.80 55.90 55.99 55.95 56.03 56.30 56.77 56.40 57.44 52.49 50.09 50.70 54.55 53.78 51.52 37.84 42.99 46.48 48.43 49.12 49.19 44.99 50.14 49.96 47.44 43.76 41.65 41.99 41.42 46.41 45.39 43.23 42.33 43.17 38.84 43.70 43.56 42.60 38.72 33.50
55.55 55.58 55.36 55.18 55.27 55.64 55.56 55.71 55.71 56.21 56.45 56.07 56.18 56.17 56.02 56.14 45.49 50.53 53.34 54.27 51.87 49.64 29.42 44.99 45.76 50.99 48.05 45.22 46.32 47.45 50.14 48.17 42.66 43.21 41.62 40.22 42.63 42.03 42.44 43.77 43.84 41.28 45.09 43.17 42.14 37.17 34.11
55.55 55.77 55.63 55.67 55.83 55.73 56.18 56.52 56.63 56.52 56.19 55.86 55.76 55.70 55.77 51.97 50.20 51.13 55.41 52.96 49.63 38.54 30.47 42.37 45.20 43.84 42.87 44.38 44.77 48.43 47.25 48.87 48.33 44.33 43.23 42.29 45.97 44.37 43.57 45.78 45.16 45.15 42.06 40.48 38.27 35.07 29.04
56.31 56.23 56.26 56.32 55.85 55.84 56.47 56.65 56.77 56.83 56.50 55.59 55.14 55.30 54.25 55.78 50.19 53.77 54.43 47.19 36.57 30.99 43.90 41.02 42.22 43.35 41.73 41.16 42.16 44.48 42.68 40.65 37.88 34.27 33.32 38.64 41.21 44.68 46.49 41.98 43.92 42.45 36.86 29.35 27.93 27.50 29.45
56.28 56.45 56.81 56.33 55.80 55.58 55.88 56.64 56.75 56.82 56.39 55.13 54.43 55.04 56.32 55.13 51.49 53.01 48.28 40.69 30.20 39.99 41.19 46.71 46.04 44.11 39.73 41.96 41.43 41.87 40.76 37.74 40.92 38.49 35.10 33.52 33.71 41.19 44.62 43.97 40.62 38.95 37.91 30.71 25.05 26.15 32.13
56.45 56.01 56.20 55.60 55.33 55.47 56.00 56.17 55.92 56.18 55.60 54.37 53.48 50.83 51.76 54.03 54.48 52.01 43.18 33.17 35.34 39.04 45.66 44.37 44.72 39.62 38.24 42.06 41.31 39.77 38.83 38.40 41.35 41.28 35.17 33.79 34.96 43.35 44.21 45.99 44.56 39.38 35.33 40.22 33.30 30.53 27.51
55.63 55.37 55.46 55.34 55.18 55.24 55.50 55.81 55.70 55.58 54.96 53.58 47.84 49.83 51.50 55.70 51.55 48.48 40.29 37.67 38.89 45.88 45.52 45.11 38.56 41.71 37.39 39.82 39.60 38.97 38.20 41.79 41.95 43.82 43.66 38.32 34.68 42.34 44.14 43.64 42.87 41.47 41.75 33.26 31.75 26.72 25.00
55.32 55.07 54.99 54.72 54.57 55.50 55.55 55.33 55.46 55.45 54.48 52.64 46.74 44.62 52.38 54.19 49.35 42.10 35.19 37.15 43.13 46.41 46.29 42.83 40.42 39.89 40.36 39.18 40.09 38.60 39.22 43.72 46.33 45.68 45.76 40.90 37.26 38.61 40.40 38.40 37.93 37.51 37.89 36.84 35.06 32.76 29.65
54.31 54.20 53.93 53.97 54.81 54.93 55.10 54.85 55.30 55.35 53.65 48.42 42.16 39.41 50.50 51.58 41.73 38.02 36.72 41.41 45.78 44.44 45.18 45.11 44.50 43.98 41.06 40.44 39.85 39.49 39.46 42.29 47.99 46.44 42.08 44.83 41.58 35.25 38.25 43.80 44.69 43.25 40.84 40.58 35.02 32.37 30.09
53.52 53.38 53.84 54.10 55.01 54.74 54.68 54.94 55.10 54.57 53.39 47.15 39.31 37.75 46.02 48.44 33.25 34.45 38.62 40.42 42.17 39.65 39.36 40.78 41.37 43.41 41.74 39.96 36.85 41.29 42.57 47.04 47.80 45.15 41.94 44.15 39.69 34.86 36.24 39.65 39.80 37.20 39.70 40.54 39.55 39.06 34.94
53.45 53.29 53.27 53.63 54.79 54.64 54.62 54.88 54.85 54.29 53.92 44.98 37.84 33.46 38.27 38.59 37.48 33.99 32.20 33.64 34.90 39.46 38.10 38.55 37.61 39.17 35.83 34.01 37.53 35.39 37.82 42.60 41.88 44.09 47.89 44.59 39.46 37.99 33.28 35.46 35.36 33.75 33.73 38.21 35.68 34.20 35.56
52.58 52.76 53.12 53.03 53.62 53.98 54.51 54.69 54.97 54.27 53.62 43.85 37.83 34.85 36.38 30.49 31.76 32.31 32.28 32.87 32.31 32.53 37.12 37.25 35.13 35.32 33.57 30.16 31.89 32.67 34.54 35.99 39.50 42.41 42.91 41.50 34.08 35.43 35.50 36.16 36.07 34.25 33.54 32.80 33.02 33.35 30.05
52.75 52.37 52.62 52.65 52.90 53.65 54.12 54.36 54.53 54.05 52.04 42.13 35.93 34.64 36.55 33.40 34.03 31.94 32.97 29.54 32.73 34.86 34.66 33.39 32.83 35.50 34.89 30.90 32.34 30.56 34.03 34.58 33.54 37.81 37.34 38.32 30.32 34.28 31.64 34.49 33.59 30.92 33.17 34.98 34.57 34.04 35.15
52.20 52.22 52.31 52.61 52.51 53.15 53.54 53.55 53.90 53.55 49.14 40.42 40.99 41.30 37.98 35.22 31.67 29.70 30.34 32.88 34.94 35.74 36.72 37.66 35.85 34.42 33.43 35.24 36.91 37.86 38.39 37.85 36.76 34.74 33.75 33.15 31.88 27.61 24.86 31.45 31.62 26.84 32.03 33.83 35.41 37.65 37.18
51.98 52.09 52.23 52.38 52.47 52.93 52.48 52.85 53.39 53.45 50.25 44.16 42.31 43.00 38.26 29.96 32.80 33.06 35.30 35.36 34.20 35.36 33.67 37.24 37.46 34.46 37.53 40.34 39.68 38.12 36.12 36.24 36.32 35.96 36.80 32.73 31.40 29.77 25.13 27.72 19.74 32.64 39.20 39.10 36.94 38.13 40.68
51.54 51.66 51.79 51.89 51.83 52.12 52.27 51.72 52.02 53.22 52.64 44.97 44.32 41.08 35.64 30.22 33.01 33.53 34.13 34.39 35.16 35.87 34.83 35.77 38.16 40.13 38.49 37.35 32.40 28.43 28.97 28.89 31.56 34.60 34.29 34.82 34.32 30.56 26.55 23.28 29.14 32.66 37.35 38.96 37.12 36.38 39.52
51.33 51.44 51.62 51.64 51.63 52.35 52.21 52.19 51.59 52.34 52.41 45.43 43.49 44.38 40.02 36.01 32.49 36.43 35.28 34.85 32.55 32.23 33.39 35.28 39.53 40.11 39.15 34.38 30.14 20.98 21.94 25.01 24.61 28.77 34.45 33.87 35.64 30.11 24.18 15.37 16.53 29.69 37.56 42.32 41.33 30.07 40.37
51.03 51.20 51.33 51.33 51.39 52.15 51.40 51.59 51.66 51.97 51.94 46.81 43.96 44.91 43.85 36.76 38.46 37.16 33.62 33.29 36.10 35.07 33.89 35.64 36.69 35.80 36.70 32.46 28.44 26.02 23.28 29.07 22.83 23.73 24.80 26.87 28.33 26.46 26.69 24.39 28.35 36.44 39.20 41.28 27.07 31.23 40.62
50.61 50.79 50.95 50.82 50.81 51.09 50.59 50.91 51.95 51.99 51.98 46.39 43.74 45.60 42.72 37.80 38.16 39.71 39.58 36.98 35.98 35.98 32.52 34.99 34.47 33.35 33.16 29.84 29.41 25.15 24.29 26.43 26.39 28.35 26.20 26.53 25.46 24.18 26.29 23.43 17.75 39.89 36.83 30.63 34.83 39.81 41.31
50.09 50.25 50.35 50.46 50.70 50.48 50.58 50.83 51.18 51.34 51.88 50.38 41.94 44.95 45.71 41.60 38.45 42.27 42.28 43.00 41.84 40.92 37.46 36.86 34.92 34.16 35.95 31.96 31.14 31.51 27.19 24.94 26.09 22.37 30.00 23.89 29.01 26.87 28.00 25.70 33.94 36.97 37.45 39.88 39.94 37.30 39.67

GFSGBSN_sfc_wetblb_009.txt.gz
Wetbulb
60.56 60.22 60.40 59.96 59.02 58.82 58.88 59.31 59.09 58.93 59.25 59.66 60.00 60.43 60.53 60.33 60.27 60.46 60.73 61.13 61.69 62.03 62.09 61.55 62.17 63.67 55.28 46.27 47.47 53.98 67.75 65.60 57.93 55.61 53.64 53.12 48.53 47.77 44.60 46.97 47.46 45.18 47.11 50.78 50.90 50.43 49.08
62.46 60.71 59.83 59.89 59.10 59.05 58.90 58.62 58.75 59.39 59.33 59.44 59.78 59.93 59.95 59.80 59.80 59.99 60.30 60.70 61.11 61.27 61.17 61.22 62.20 62.86 49.70 42.04 51.53 54.01 56.84 53.13 55.11 54.07 52.41 52.68 50.62 50.69 46.96 45.74 45.70 47.23 48.00 48.14 49.20 48.54 48.15
63.36 63.21 62.72 60.82 60.06 59.52 59.01 58.84 58.63 58.72 59.05 59.63 59.79 59.86 59.83 59.65 59.58 59.56 60.02 60.52 60.75 60.81 60.83 61.34 62.17 59.55 48.81 47.87 49.97 51.71 54.15 50.65 52.71 53.88 52.47 54.12 53.35 49.53 47.82 44.88 48.12 47.51 44.12 45.15 46.08 46.74 46.45
61.82 61.73 61.74 61.89 62.39 61.79 60.28 59.69 58.90 58.54 58.73 59.10 59.55 59.54 59.44 59.49 59.55 59.57 59.97 60.26 60.70 60.77 60.69 62.02 62.10 51.71 44.29 52.87 49.22 51.40 51.04 50.27 52.32 53.45 54.51 54.32 54.32 51.60 48.65 48.17 45.29 42.53 41.12 36.91 42.55 45.76 46.82
60.56 60.68 60.43 60.35 60.52 60.70 60.61 60.18 59.54 59.24 59.35 59.47 59.08 58.80 59.01 59.24 59.34 59.64 59.81 59.93 60.17 60.40 61.20 61.99 53.03 49.06 45.40 55.26 46.45 49.58 49.39 49.38 50.87 52.15 52.70 55.46 52.81 47.96 47.02 41.28 38.06 37.60 33.11 35.53 39.67 45.03 44.80
58.98 58.65 58.58 58.38 58.34 58.52 58.63 58.65 58.56 58.40 58.13 58.38 58.31 58.72 58.54 58.25 58.99 59.17 58.66 58.42 58.66 58.52 58.43 58.21 56.15 43.65 46.71 45.03 48.11 49.25 48.15 51.15 50.07 50.36 50.09 48.24 45.19 41.47 39.58 37.87 32.83 33.74 33.68 35.43 35.62 41.00 42.51
56.86 56.66 56.65 56.89 57.10 57.19 57.46 57.55 57.52 57.44 57.22 57.38 57.73 57.89 57.70 58.94 58.14 58.20 53.31 51.48 47.74 47.20 47.99 43.45 45.28 43.03 46.03 48.12 49.42 46.73 49.80 49.29 49.50 47.20 40.42 43.61 38.80 36.65 39.31 40.73 38.59 37.50 35.90 35.35 38.38 43.03 42.09
56.57 56.53 56.35 56.09 56.19 56.28 56.64 56.74 56.82 56.87 56.80 56.72 56.84 56.81 57.48 57.74 58.32 57.33 52.89 50.16 48.14 48.53 43.11 49.10 48.57 49.29 50.85 47.90 43.72 45.10 49.97 44.08 44.11 40.09 41.93 39.85 36.15 41.29 42.92 42.75 41.29 39.22 36.55 36.13 39.33 42.59 41.89
56.20 56.17 56.04 56.17 56.36 56.26 56.18 56.24 56.33 56.37 56.33 56.28 56.36 56.37 56.78 57.48 57.64 51.63 48.02 49.96 53.30 51.29 41.47 44.74 48.92 47.85 48.37 49.35 44.30 43.84 48.04 44.63 42.03 40.00 40.27 36.94 40.86 45.29 43.10 40.78 39.65 39.57 37.92 36.72 37.42 41.14 40.90
55.90 56.28 56.44 56.33 56.19 56.28 56.22 56.25 56.22 56.28 56.20 56.11 55.96 56.00 56.22 56.53 51.56 48.04 49.51 53.45 52.84 49.98 36.67 41.40 45.36 47.21 47.79 48.14 44.27 49.03 48.36 46.27 42.15 39.67 39.79 39.35 44.56 43.29 41.15 40.44 41.10 36.77 42.10 41.97 40.59 36.95 34.23
55.96 56.21 56.48 56.26 56.09 56.12 56.07 56.27 56.38 56.58 56.71 56.37 56.20 56.00 55.87 55.24 44.04 49.04 52.08 53.87 50.73 47.76 28.90 43.25 44.43 49.75 46.79 44.80 44.62 46.38 48.80 46.76 41.21 41.67 41.00 39.26 40.95 40.90 40.16 41.51 42.62 39.47 43.64 41.51 40.56 36.21 33.33
56.84 56.92 56.40 55.95 55.91 56.02 56.14 56.55 56.54 56.56 56.38 56.09 55.80 55.59 55.79 51.52 48.65 50.64 54.57 50.96 48.44 36.42 29.40 40.89 44.07 42.71 41.76 43.20 43.50 47.21 45.64 47.09 46.08 42.28 41.11 41.29 44.51 43.38 42.77 44.32 44.35 43.98 40.53 39.22 36.88 33.75 29.22
56.44 56.49 56.03 55.65 55.62 55.67 56.05 56.16 56.05 55.99 56.04 55.63 55.25 54.98 53.90 55.29 48.90 50.80 52.17 46.00 35.95 30.63 42.49 39.77 41.52 43.34 40.01 39.52 40.78 42.49 41.19 39.08 36.60 32.92 32.27 36.82 39.35 42.60 44.57 40.43 42.36 40.87 35.80 28.84 27.28 26.58 30.52
55.97 55.86 55.76 55.41 55.31 55.46 56.11 56.47 56.51 55.67 55.65 55.22 54.47 55.34 56.00 56.09 53.08 51.42 46.67 40.46 28.65 38.04 39.46 45.60 44.65 43.76 38.80 40.34 39.88 40.52 38.98 36.61 40.30 36.75 33.14 32.08 32.91 39.09 42.31 41.41 38.72 38.29 38.23 32.27 24.60 25.46 31.87
55.65 55.36 55.04 54.83 54.54 54.66 55.67 56.25 56.34 56.32 55.34 54.29 53.33 50.86 51.35 54.61 53.54 49.98 42.45 33.02 32.98 38.68 42.46 41.63 42.31 37.94 37.11 40.87 41.39 40.39 36.49 37.28 39.50 38.92 33.87 32.76 32.70 41.83 43.18 43.55 42.56 37.17 33.69 40.71 33.36 36.65 27.21
54.71 54.56 54.36 54.22 54.18 54.67 55.35 55.75 56.09 56.00 54.98 53.45 49.41 49.22 50.33 54.02 49.39 46.74 38.85 36.79 37.85 43.36 43.77 42.70 36.41 39.32 34.72 38.09 38.17 38.18 37.40 41.03 42.67 45.25 44.83 37.54 32.73 40.68 42.61 42.44 41.68 39.76 40.46 32.51 30.29 26.23 26.18
54.11 54.25 54.48 54.22 54.78 55.13 55.17 55.50 55.67 55.53 54.58 52.10 45.15 45.35 51.22 51.19 48.53 42.72 34.49 35.33 41.15 45.32 42.79 40.87 38.16 38.39 38.43 36.58 37.70 36.98 38.53 42.68 45.70 44.81 45.13 42.37 36.98 38.02 40.13 38.16 38.89 39.13 35.34 35.35 34.78 32.49 29.47
53.63 53.70 53.56 54.06 54.49 54.90 54.63 54.81 55.28 54.80 53.53 47.70 40.31 39.43 47.52 48.48 40.34 36.54 35.96 39.11 44.24 41.05 40.27 39.58 40.02 41.11 38.24 36.46 36.28 38.09 38.44 40.92 42.62 44.03 40.11 43.63 40.98 35.44 37.84 43.90 45.41 42.86 38.66 36.44 32.87 31.52 31.52
53.60 53.62 53.73 53.42 53.71 54.20 54.40 54.84 54.91 53.97 52.67 44.37 37.42 36.91 43.57 45.25 32.98 32.91 34.23 35.79 38.74 36.58 36.46 37.46 36.59 38.24 36.68 35.62 30.49 37.41 34.31 42.00 40.98 38.70 38.82 41.66 37.53 29.68 31.25 36.50 37.41 34.80 35.93 36.45 34.66 33.96 30.97
52.95 53.01 53.30 53.12 53.41 53.76 54.01 54.43 54.30 53.91 53.16 43.40 36.48 31.03 35.25 36.60 34.26 30.87 30.03 30.79 33.21 37.50 36.44 36.83 35.35 36.87 34.02 31.79 34.68 31.58 32.41 37.96 39.59 39.08 44.16 42.51 36.60 32.82 27.69 32.19 35.39 32.42 34.97 35.93 33.81 27.87 27.67
52.86 52.85 52.82 53.09 52.95 53.74 53.97 54.19 54.30 53.78 52.58 41.59 36.56 33.70 34.77 28.14 29.68 30.55 30.50 30.85 30.51 31.14 36.02 35.77 33.23 33.92 31.87 28.49 30.02 29.60 33.08 34.52 37.62 40.59 39.52 37.36 29.54 31.34 32.05 33.04 33.30 32.33 33.58 34.08 31.25 31.58 27.59
52.37 52.43 52.77 52.97 52.83 53.19 53.73 53.71 54.04 53.40 50.62 40.50 35.12 33.85 35.68 31.67 32.27 29.57 30.51 27.26 30.76 33.52 33.50 32.26 31.14 34.19 33.39 29.65 30.98 29.49 32.16 32.24 31.67 35.21 34.13 35.11 28.97 30.84 27.57 31.13 31.12 29.16 31.77 32.52 32.78 32.65 32.16
52.07 52.16 52.32 52.46 52.34 52.25 52.99 52.79 53.18 52.91 48.28 39.59 39.67 39.42 35.56 32.44 29.81 27.72 28.57 31.19 33.52 33.35 34.47 36.02 34.78 33.33 32.10 33.57 35.99 36.00 36.63 35.99 35.17 33.08 31.81 30.74 28.39 25.75 23.14 28.67 28.29 24.55 28.75 30.25 31.81 33.94 33.95
51.56 51.71 51.86 52.04 51.85 51.90 51.79 52.08 52.70 52.90 49.32 42.50 41.05 39.17 33.42 28.09 31.78 31.74 34.22 34.86 33.06 33.20 31.70 35.48 36.18 32.87 36.21 40.04 38.39 37.26 34.92 34.76 34.89 34.41 35.07 29.76 28.55 28.78 25.03 27.00 18.87 29.20 35.25 35.35 33.70 35.55 37.86
51.33 51.37 51.58 51.67 51.72 51.59 51.40 51.43 51.42 52.30 51.25 44.19 42.84 39.59 34.57 28.14 32.20 32.25 32.84 32.63 33.11 34.18 33.31 34.25 36.22 37.43 39.67 35.60 31.26 27.79 27.14 26.78 29.25 32.17 31.88 32.45 28.87 26.17 20.27 21.23 26.40 29.44 33.42 32.87 31.91 32.57 38.96
51.10 51.10 51.24 51.33 51.25 51.53 51.85 51.69 51.31 51.68 51.53 43.76 42.20 43.02 40.98 36.00 30.11 34.83 33.35 33.41 31.27 31.21 32.85 34.37 37.98 38.78 36.07 34.45 32.52 24.01 21.40 24.09 23.49 27.10 31.77 32.13 31.80 26.00 23.94 20.18 17.24 28.27 33.97 37.05 36.05 26.69 37.76
50.58 50.62 50.85 50.93 50.81 50.80 50.49 50.40 50.93 51.85 51.62 45.34 42.59 43.65 42.68 36.41 35.82 35.18 32.90 31.09 35.18 34.27 31.94 33.95 33.94 33.41 34.62 28.67 25.66 23.83 23.15 28.32 24.18 23.18 24.14 24.29 24.36 22.57 21.47 18.46 24.50 31.84 35.66 37.77 24.87 26.41 36.13
50.24 50.16 50.23 50.42 50.48 50.55 50.34 50.03 50.67 51.17 51.66 45.49 42.32 44.72 41.35 36.72 36.02 37.60 37.87 34.20 34.11 34.00 31.13 32.43 31.96 31.18 30.35 23.35 24.43 23.00 26.63 26.21 25.29 25.62 25.90 22.83 18.79 20.38 19.86 16.74 16.87 36.00 35.26 29.78 34.19 37.99 38.59
50.07 50.06 49.79 50.44 50.26 50.42 50.53 50.55 50.77 51.18 51.60 50.27 43.83 44.13 44.86 41.31 37.37 40.76 41.07 41.55 40.04 39.77 36.09 36.49 34.18 33.81 34.95 31.22 29.06 28.68 24.22 28.66 26.83 21.64 28.61 23.26 27.91 25.14 25.26 25.88 33.36 36.65 35.91 38.14 38.47 37.36 37.09